Regional Weather Roundup
Issued by NWS

Home | Current Version | Previous Version | Text Only | Print | Product List | Glossary On
Versions: 1 2 3 4 5 6 7 8 9 10 11 12 13 14 15 16 17 18 19 20 21 22 23 24 25 26 27 28
000
ASUS44 KJAN 152210
RWRMS

MISSISSIPPI HOURLY WEATHER ROUNDUP
NATIONAL WEATHER SERVICE JACKSON MS
400 PM CST FRI DEC 15 2017

NOTE: "FAIR: INDICATES FEW OR NO CLOUDS BELOW 12,000 FEET WITH NO
SIGNIFICANT WEATHER AND/OR OBSTRUCTIONS TO VISIBILITY.

MSZ001>002-007>008-010>013-018>021-025>028-034>036-152300-
NORTHWEST MISSISSIPPI

CITY           SKY/WX    TMP DP  RH WIND       PRES   REMARKS
BATESVILLE     FAIR      46  24  43 SW5       30.21S
CLARKSDALE     CLEAR     46  27  46 S5        30.20F
CLEVELAND      FAIR      46  28  49 S6        30.22S
GREENWOOD      PTCLDY    45  25  45 CALM      30.23R
GREENVILLE     CLEAR     46  24  42 S3        30.21F
OLIVE BRANCH   PTCLDY    45  25  45 SW6       30.15F
OXFORD         FAIR      45  25  45 CALM      30.21S
TUNICA           N/A    N/A N/A N/A SW7       30.20F
WINONA         FAIR      43  25  48 CALM      30.22R
$$

MSZ003>006-009-014>017-022>024-029>033-037>039-152300-
NORTHEAST MISSISSIPPI

CITY           SKY/WX    TMP DP  RH WIND       PRES   REMARKS
ABERDEEN       FAIR      41  32  70 CALM      30.23S
COLUMBUS AFB   CLOUDY    41  26  54 W6        30.21S
CORINTH        FAIR      45  23  42 CALM      30.17F
GOLDN TRIANGLE MOCLDY    41  25  53 NW3       30.22S
STARKVILLE     FAIR      41  27  56 CALM      30.23S
TUPELO         CLEAR     43  24  47 VRB3      30.21S
$$

MSZ040-058-152300-
CENTRAL MISSISSIPPI

CITY           SKY/WX    TMP DP  RH WIND       PRES   REMARKS
JACKSON INTL   MOCLDY    46  26  45 N7        30.21S
JACKSON HAWKNS CLOUDY    44  26  49 N3        30.22S
MADISON        FAIR      43  27  52 CALM      30.21F
MERIDIAN KEY   PTCLDY    43  28  55 N6        30.21F
MERIDIAN NAS   CLOUDY    43  28  55 NW7       30.21S
RAYMOND        FAIR      45  27  49 CALM      30.22S
VICKSBURG VKS  CLEAR     46  25  42 CALM      30.24S
$$

MSZ059>079-152300-
SOUTH MISSISSIPPI

CITY           SKY/WX    TMP DP  RH WIND       PRES   REMARKS
HATTIESBURG    CLOUDY    45  32  60 N6        30.23R
LAUREL         FAIR      42  28  56 N5        30.22R
MCCOMB         CLOUDY    46  30  53 N6        30.20F
NATCHEZ        CLOUDY    46  28  49 N5        30.23S
PINE BELT      CLOUDY    43  31  62 N5        30.22F
$$

MSZ080>082-152300-
COASTAL MISSISSIPPI

CITY           SKY/WX    TMP DP  RH WIND       PRES   REMARKS
BAY ST LOUIS   PTSUNNY   46  34  61 N7        30.21R
BILOXI         CLOUDY    47  34  61 N5        30.20R
PASCAGOULA     CLOUDY    48  34  58 N7        30.20R
GULFPORT       CLOUDY    48  33  56 N8        30.20S
$$

LAZ007>009-015>016-023>026-152300-
NORTHEAST LOUISIANA

CITY           SKY/WX    TMP DP  RH WIND       PRES   REMARKS
BASTROP        FAIR      47  27  45 CALM      30.23F
TALLULAH/VBURG MOSUNNY   47  26  44 CALM      30.24S
VIDALIA          N/A    N/A N/A N/A MISG      30.23S
$$




USA.gov is the U.S. government's official web portal to all federal, state and local government web resources and services.